Location: Newark
(39.9267°N, 1.8017°W)
Time: 08:35:43
(UTC+00:00)

Envisat - Pass Details

Date: 29 October 2019
Orbit: 764 x 766 km, 98.1° (Epoch: 13 November)

Event Time Altitude Azimuth Distance (km) Brightness Sun altitude
Rises 05:41:15 0° 34° (NE) 3,237 6.6 -10.4°
Reaches altitude 10° 05:44:45 10° 59° (ENE) 2,305 6.3 -9.7°
Maximum altitude 05:47:20 14° 90° (E) 2,037 6.6 -9.2°
Drops below altitude 10° 05:49:55 10° 121° (ESE) 2,296 6.8 -8.7°
Sets 05:53:23 0° 146° (SSE) 3,216 7.0 -8.1°
